Location: Chinna Viriv?da
(16.5281°N, 81.0493°E)
Time: 22:17:27
(UTC+00:00)

Resurs 01 Rocket - Pass Details

Date: 14 April 2026
Orbit: 626 x 636 km, 97.7° (Epoch: 9 May)

Event Time Altitude Azimuth Distance (km) Brightness Sun altitude
Rises 13:26:01 0° 157° (SSE) 2,915 4.7 -9.0°
Reaches altitude 10° 13:28:16 10° 151° (SSE) 2,007 3.8 -9.6°
Maximum altitude 13:32:29 48° 77° (ENE) 823 1.8 -10.6°
Drops below altitude 10° 13:36:41 10° 3° (N) 2,004 4.3 -11.5°
Sets 13:38:56 0° 358° (N) 2,911 5.2 -12.1°
